Simultaneous Nadir Overpasses (SNOs) Predictions

Prediction of SNOs between FY3D and NOAA-19 Satellite Orbit:

Table of predicted SNOs for the next 14.0 days since TLE Epoch: 2/15/2020
Index Date (FY3D) Time (FY3D) Lat,Lon (FY3D) SZA (FY3D ) Date (NOAA-19) Time (NOAA-19) Lat,Lon (NOAA-19) SZA (NOAA-19 ) Distance(km) Time Diff (sec)
1 02/26/2020 04:30:29 79.37, 80.18 90.18 02/26/2020 04:29:25 79.39, 76.04 90.69 84.99 64
2 02/26/2020 05:21:21 -79.61,-114.46 89.44 02/26/2020 05:20:23 -79.62,-114.51 89.40 1.47 58
3 02/26/2020 06:12:06 79.63, 52.66 90.59 02/26/2020 06:11:18 79.61, 52.73 90.60 2.22 48
4 02/26/2020 07:02:51 -79.63,-140.08 89.41 02/26/2020 07:02:24 -79.61,-140.10 89.42 3.08 27
5 02/26/2020 07:53:35 79.62, 27.32 90.56 02/26/2020 07:53:18 79.63, 27.42 90.56 2.16 17
6 02/26/2020 08:44:20 -79.63,-165.42 89.45 02/26/2020 08:44:24 -79.63,-165.40 89.45 0.75 4
7 02/26/2020 09:35:04 79.62, 1.97 90.53 02/26/2020 09:35:19 79.62, 1.82 90.54 3.00 15
8 02/26/2020 10:25:49 -79.63, 169.23 89.48 02/26/2020 10:26:24 -79.64, 169.29 89.49 2.13 35
9 02/26/2020 11:16:33 79.62, -23.37 90.50 02/26/2020 11:17:19 79.64, -23.48 90.51 3.19 46
10 02/26/2020 12:07:19 -79.66, 143.61 89.45 02/26/2020 12:08:25 -79.63, 143.70 89.51 2.96 66




NCC Satellite Simultaneous Nadir Overpasses (SNOs) Prediction Service
